SCP
0 0 0 0 0 0 0 0 0 0 0 0 0 0 0 0 0 0 0 0 0 0
0 0 0 0 0 0 0 0 0 0 0 0 0 0 0 0 0 0 0 0 0 0
0 0 0 0 0 0 0 0 0 0 0 0 0 0 0 0 0 0 0 0 0 0
0 0 0 0 0 0 0 0 0 0 0 0 0 0 0 0 0 0 0 0 0 0
0 0 0 0 0 0 0 0 0 0 0 0 0 0 0 0 0 0 0 0 0 0
0 0 0 0 0 0 0 0 0 0 0 0 0 0 0 0 0 0 0 0 0 0
0 0 0 0 0 0 0 0 0 0 0 0 0 0 0 0 0 0 0 0 0 0
0 0 0 0 0 0 0 0 0 0 0 0 0 0 0 0 0 0 0 0 0 0
0 0 0 0 0 0 0 0 0 0 0 0 0 0 0 0 0 0 0 0 0 0
0 0 0 0 0 0 0 0 0 0 0 0 0 0 0 0 0 0 0 0 0 0
0 0 0 0 0 0 0 0 0 0 0 0 0 0 0 0 0 0 0 0 0 0
0 0 0 0 0 0 0 0 0 0 0 0 0 0 0 0 0 0 0 0 0 0
0 0 0 0 0 0 0 0 0 0 0 0 0 0 0 0 0 0 0 0 0 0
0 0 0 0 0 0 0 0 0 0 0 0 0 0 0 0 0 0 0 0 0 0
Wind_Speed_500mb
84 84 82 82 84 83 82 82 81 82 81 77 73 70 68 66 62 59 55 50 45 43
82 83 83 81 81 82 82 83 81 80 79 76 74 72 71 70 67 63 58 52 48 45
75 80 81 81 82 84 87 89 85 83 78 76 76 75 74 71 69 66 62 56 52 47
68 79 84 89 87 90 92 88 86 83 79 78 80 81 77 75 72 68 64 58 52 48
73 82 87 88 86 89 91 89 85 82 81 80 82 83 82 79 76 71 66 59 54 51
84 85 84 87 87 91 90 87 85 82 83 81 83 83 82 79 74 70 66 60 55 52
87 71 81 92 97 94 91 87 85 82 81 82 81 81 82 80 77 73 66 60 55 51
77 85 92 96 95 93 91 86 81 80 82 82 82 83 84 81 78 73 66 60 55 50
99 101 99 99 97 92 87 84 79 80 80 83 85 83 83 81 78 72 67 60 55 49
95 101 98 96 93 90 87 82 81 80 79 83 86 85 86 82 78 73 66 61 54 47
84 87 89 87 84 81 81 80 79 80 81 84 83 87 85 82 78 76 68 60 52 48
75 77 81 80 76 73 74 75 79 80 82 85 83 86 81 80 77 70 64 57 51 40
66 71 70 67 67 68 69 75 78 81 82 82 80 84 81 85 72 67 60 54 42 47
43 53 62 61 63 65 69 74 80 80 80 83 79 83 82 82 71 64 60 51 45 46
Wind_Direction_500mb
232 234 236 238 238 239 239 240 241 239 238 239 239 240 242 244 244 245 247 252 258 263
234 235 235 237 238 238 241 242 242 241 240 240 238 239 241 242 243 243 245 248 251 257
242 242 241 240 239 240 241 242 242 240 238 237 236 237 238 239 239 240 242 243 247 253
247 245 244 244 243 244 246 246 245 243 240 235 233 233 235 237 237 238 240 242 246 251
247 244 243 242 243 247 249 249 247 244 240 236 233 232 233 233 234 234 237 240 244 251
251 248 249 249 250 250 251 250 247 243 240 236 232 230 230 232 233 234 235 238 243 250
254 254 254 251 251 250 250 249 247 243 240 236 232 228 228 229 229 230 233 237 242 249
253 263 257 254 253 250 248 247 244 239 235 231 227 226 225 227 228 229 231 235 241 248
270 262 258 253 251 249 246 244 238 233 231 228 225 224 226 227 227 227 230 234 238 243
269 262 256 253 249 245 243 240 235 230 227 224 224 223 224 224 226 227 229 231 234 241
268 259 253 249 244 241 239 236 231 227 223 222 222 222 224 226 225 225 226 227 232 242
267 259 254 247 241 237 234 232 230 227 223 220 218 221 225 226 223 222 223 225 233 243
266 254 247 244 240 236 232 231 228 223 221 221 219 222 223 227 222 222 223 228 233 245
286 264 252 242 234 230 226 224 223 220 220 220 217 219 221 227 224 220 221 228 238 246
Wind_Speed_850mb
84 84 82 82 84 83 82 82 81 82 81 77 73 70 68 66 62 59 55 50 45 43
82 83 83 81 81 82 82 83 81 80 79 76 74 72 71 70 67 63 58 52 48 45
75 80 81 81 82 84 87 89 85 83 78 76 76 75 74 71 69 66 62 56 52 47
68 79 84 89 87 90 92 88 86 83 79 78 80 81 77 75 72 68 64 58 52 48
73 82 87 88 86 89 91 89 85 82 81 80 82 83 82 79 76 71 66 59 54 51
84 85 84 87 87 91 90 87 85 82 83 81 83 83 82 79 74 70 66 60 55 52
87 71 81 92 97 94 91 87 85 82 81 82 81 81 82 80 77 73 66 60 55 51
77 85 92 96 95 93 91 86 81 80 82 82 82 83 84 81 78 73 66 60 55 50
99 101 99 99 97 92 87 84 79 80 80 83 85 83 83 81 78 72 67 60 55 49
95 101 98 96 93 90 87 82 81 80 79 83 86 85 86 82 78 73 66 61 54 47
84 87 89 87 84 81 81 80 79 80 81 84 83 87 85 82 78 76 68 60 52 48
75 77 81 80 76 73 74 75 79 80 82 85 83 86 81 80 77 70 64 57 51 40
66 71 70 67 67 68 69 75 78 81 82 82 80 84 81 85 72 67 60 54 42 47
43 53 62 61 63 65 69 74 80 80 80 83 79 83 82 82 71 64 60 51 45 46
Wind_Direction_850mb
232 234 236 238 238 239 239 240 241 239 238 239 239 240 242 244 244 245 247 252 258 263
234 235 235 237 238 238 241 242 242 241 240 240 238 239 241 242 243 243 245 248 251 257
242 242 241 240 239 240 241 242 242 240 238 237 236 237 238 239 239 240 242 243 247 253
247 245 244 244 243 244 246 246 245 243 240 235 233 233 235 237 237 238 240 242 246 251
247 244 243 242 243 247 249 249 247 244 240 236 233 232 233 233 234 234 237 240 244 251
251 248 249 249 250 250 251 250 247 243 240 236 232 230 230 232 233 234 235 238 243 250
254 254 254 251 251 250 250 249 247 243 240 236 232 228 228 229 229 230 233 237 242 249
253 263 257 254 253 250 248 247 244 239 235 231 227 226 225 227 228 229 231 235 241 248
270 262 258 253 251 249 246 244 238 233 231 228 225 224 226 227 227 227 230 234 238 243
269 262 256 253 249 245 243 240 235 230 227 224 224 223 224 224 226 227 229 231 234 241
268 259 253 249 244 241 239 236 231 227 223 222 222 222 224 226 225 225 226 227 232 242
267 259 254 247 241 237 234 232 230 227 223 220 218 221 225 226 223 222 223 225 233 243
266 254 247 244 240 236 232 231 228 223 221 221 219 222 223 227 222 222 223 228 233 245
286 264 252 242 234 230 226 224 223 220 220 220 217 219 221 227 224 220 221 228 238 246